Thermal, CA

3:19 AM PDT on March 30, 2017 (GMT -0700)
Desert Resorts Regional

Weather History for KTRM - January, 2013

Change the Weather History Date:

Friday, January 4, 2013

  Actual Average Record
Temperature  
Mean Temperature 44 °F 54 °F  
Max Temperature 65 °F 70 °F 82 °F (1969)
Min Temperature 22 °F 37 °F 21 °F (1993)
Degree Days  
Heating Degree Days 21 11  
Month to date heating degree days 68 46  
Since 1 July heating degree days 506 584  
Cooling Degree Days 0 0  
Month to date cooling degree days 0 0  
Year to date cooling degree days 0 0  
Moisture  
Dew Point 15 °F    
Average Humidity 37    
Maximum Humidity 62    
Minimum Humidity 11    
Precipitation  
Precipitation 0.00 in 0.02 in 1.40 in (1995)
Month to date precipitation 0.00 0.09  
Year to date precipitation 0.00 0.09  
Since 1 July precipitation 2.18  
Snow  
Snow 0.00 in - - ()
Month to date snowfall 0.0  
Year to date snowfall 0.0  
Snow Depth 0.00 in    
Sea Level Pressure  
Sea Level Pressure 30.26 in    
Wind  
Wind Speed 3 mph (NNW)    
Max Wind Speed 8 mph    
Max Gust Speed 12 mph    
Visibility 10 miles    
Events      
T = Trace of Precipitation, MM = Missing Value Source: NWS Daily Summary

Daily Weather History Graph

Daily Weather History Graph

Search for Another Location

Airport or City:

Trip Planner

Search our weather history database for the weather conditions in past years. The results will help you decide how hot, cold, wet, or windy it might be!

Date:

Astronomy

Jan. 04, 2013 Rise Set
Actual Time 6:49 AM PST 4:50 PM PST
Civil Twilight 6:22 AM PST 5:17 PM PST
Nautical Twilight 5:51 AM PST 5:48 PM PST
Astronomical Twilight 5:21 AM PST 6:18 PM PST
Moon No Moon Rise 10:57 AM PST (1/4)
Length of Visible Light 10h 55m
Length of Day
10h 00m
Waning Gibbous, 54% of the Moon is Illuminated
Jan 4
Waning Gibbous
Jan 4
Last Quarter
Jan 11
New
Jan 18
First Quarter
Jan 26
Full

Hourly Weather History & Observations

Time (PST) Temp. Windchill Dew Point Humidity Pressure Visibility Wind Dir Wind Speed Gust Speed Precip Events Conditions
12:52 AM 34.0 °F 31.0 °F 15.1 °F 46% 30.23 in 10.0 mi NNE 3.5 mph - N/A   Clear
1:52 AM 35.1 °F - 14.0 °F 42% 30.25 in 10.0 mi Calm Calm - N/A   Clear
2:52 AM 30.9 °F 25.2 °F 15.1 °F 52% 30.25 in 10.0 mi West 5.8 mph - N/A   Clear
3:52 AM 32.0 °F 25.6 °F 12.9 °F 45% 30.25 in 10.0 mi NNW 6.9 mph - N/A   Clear
4:52 AM 26.1 °F 19.4 °F 10.0 °F 51% 30.25 in 10.0 mi NW 5.8 mph - N/A   Clear
5:52 AM 21.9 °F 17.2 °F 10.0 °F 60% 30.25 in 10.0 mi NW 3.5 mph - N/A   Clear
6:52 AM 26.1 °F 20.5 °F 12.9 °F 58% 30.27 in 10.0 mi NNW 4.6 mph - N/A   Clear
7:52 AM 35.1 °F 31.0 °F 15.1 °F 44% 30.30 in 7.0 mi NW 4.6 mph - N/A   Clear
8:52 AM 46.9 °F - 16.0 °F 29% 30.32 in 10.0 mi NW 3.5 mph - N/A   Clear
9:52 AM 55.0 °F - 14.0 °F 20% 30.32 in 10.0 mi Calm Calm - N/A   Clear
10:52 AM 60.1 °F - 7.0 °F 12% 30.30 in 10.0 mi Calm Calm - N/A   Clear
11:52 AM 61.0 °F - 9.0 °F 13% 30.26 in 10.0 mi Calm Calm - N/A   Clear
12:52 PM 63.0 °F - 12.0 °F 14% 30.22 in 10.0 mi ESE 6.9 mph - N/A   Clear
1:52 PM 64.0 °F - 10.9 °F 13% 30.21 in 10.0 mi SSE 4.6 mph - N/A   Clear
2:52 PM 64.0 °F - 10.0 °F 12% 30.21 in 10.0 mi Variable 4.6 mph - N/A   Clear
3:52 PM 62.1 °F - 12.9 °F 15% 30.21 in 10.0 mi SSE 5.8 mph - N/A   Clear
4:52 PM 53.1 °F - 18.0 °F 25% 30.21 in 10.0 mi South 4.6 mph - N/A   Clear
5:52 PM 41.0 °F 39.0 °F 19.9 °F 43% 30.22 in 10.0 mi SSE 3.5 mph - N/A   Clear
6:52 PM 39.0 °F - 21.0 °F 49% 30.24 in 10.0 mi Calm Calm - N/A   Clear
7:52 PM 37.9 °F 35.5 °F 21.9 °F 53% 30.25 in 10.0 mi North 3.5 mph - N/A   Clear
8:52 PM 35.1 °F - 19.9 °F 54% 30.27 in 10.0 mi Calm Calm - N/A   Clear
9:52 PM 32.0 °F 27.5 °F 19.9 °F 61% 30.28 in 10.0 mi North 4.6 mph - N/A   Clear
10:52 PM 30.0 °F - 18.0 °F 61% 30.28 in 10.0 mi Calm Calm - N/A   Clear
11:52 PM 33.1 °F 27.7 °F 18.0 °F 54% 30.28 in 10.0 mi NNW 5.8 mph - N/A   Clear